Regional Weather Roundup
Issued by NWS

Home | Current Version | Previous Version | Text Only | Print | Product List | Glossary On
Versions: 1 2 3 4 5 6 7 8 9 10 11 12 13 14 15 16 17 18 19 20 21 22 23 24 25 26 27 28 29 30 31 32 33 34 35 36 37 38 39 40 41 42 43 44 45 46 47 48 49 50
658
ASUS43 KLSX 301110
RWRMO

WEATHER SUMMARY FOR MISSOURI
NATIONAL WEATHER SERVICE SPRINGFIELD MO
600 AM CDT TUE AUG 30 2016

NOTE: "FAIR" INDICATES FEW OR NO CLOUDS BELOW 12,000 FEET WITH NO
       SIGNIFICANT WEATHER AND/OR OBSTRUCTIONS TO VISIBILITY.
       CURRENT SKY AND/OR WEATHER CONDITIONS ARE NOT AVAILABLE FOR
       CHILLICOTHE AND FARMINGTON.

MOZ001>031-035>038-043-044-053-054-301200-
...NORTHERN AND WESTERN MISSOURI...

CITY           SKY/WX    TMP DP  RH WIND       PRES   REMARKS
KANSAS CTY INT CLOUDY    71  68  90 E7        30.16S
KANSAS C DTWN  CLOUDY    72  69  90 E5        30.14F
LEE`S SUMMIT   RAIN      70  69  97 NE9       30.16S
ST JOSEPH      PTCLDY    70  68  93 CALM      30.16S
CHILLICOTHE      N/A     73  71  93 CALM      30.18S
KIRKSVILLE     CLOUDY    70  68  93 NE6       30.17R

$$
MOZ066>068-077>081-088>096-101>105-301200-
...SOUTHWEST MISSOURI...

CITY           SKY/WX    TMP DP  RH WIND       PRES   REMARKS
SPRINGFIELD    CLEAR     72  68  87 CALM      30.15R
JOPLIN         MOCLDY    71  69  93 VRB3      30.14R
BRANSON        MOCLDY    68  68 100 CALM      30.16R

$$
MOZ032>034-039>042-045>050-055>058-069>072-301200-
...CENTRAL MISSOURI...

CITY           SKY/WX    TMP DP  RH WIND       PRES   REMARKS
COLUMBIA       CLEAR     72  72 100 SE5       30.14S FOG
JEFFERSON CITY PTCLDY    70  69  97 CALM      30.13S
ROLLA          CLEAR     69  68  96 S3        30.15R
SEDALIA        CLOUDY    73  71  93 NW5       30.16R FOG
WHITEMAN AFB   PTCLDY    71  71  99 N6        30.15R
OSAGE BEACH    CLEAR     70  69  97 CALM      30.15R

$$
MOZ051-052-059>065-301200-
...EAST CENTRAL MISSOURI...

CITY           SKY/WX    TMP DP  RH WIND       PRES   REMARKS
ST LOUIS INTL  CLEAR     78  72  81 CALM      30.14R
SPIRIT OF STL  PTCLDY    71  71 100 CALM      30.12S FOG
ST CHARLES     FOG       73  73 100 CALM      30.12R VSB 1/2

$$
MOZ072>076-082>087-097>100-106>115-301200-
...SOUTH CENTRAL AND SOUTHEAST MISSOURI...

CITY           SKY/WX    TMP DP  RH WIND       PRES   REMARKS
CAPE GIRARDEAU FOG       70  69  97 CALM      30.09S VSB 1/4
FARMINGTON     CLEAR     69  68  96 CALM      30.15R FOG
POPLAR BLUFF   CLEAR     74  72  93 CALM      30.09R
WEST PLAINS    CLEAR     71  68  90 CALM      30.16S

$$




USA.gov is the U.S. government's official web portal to all federal, state and local government web resources and services.